ETD957 HKJK-EHAM

Flight info

Callsign ETD957
Flight time N/A
Altitude 38000
Route IBRAT3E APKUB UQ293 IMPOG DCT SIPKI/N0477F370 UT325 BUN/N0477F380 UG862 BURAT/N0477F400 UG862 DIR UB730 BOD UM508 TGU UJ36 BSA/N0478F410 UB726 ZEM/N0474F400 UB16 PECES N853 LUMAS DCT SOFFY DCT MRM DCT MTL DCT ETREK DCT MADOT DCT MOPEM DCT CACHI DCT AVLON DCT OKRIX DCT BRY DCT CLM DCT NURMO DCT SULEX DCT VEKIN DCT ADUTO N873 FERDI/N0384F240 Y18 DENUT
Aircraft B77L/H-SDE1E2E3FGHIJ2J3J4J5M1RWXY/LB1D1

Departure

Time N/A
Airport Jomo Kenyatta International Airport (HKJK)

Arrival

Time 2026-04-27 07:52
Airport Amsterdam Airport Schiphol (EHAM)
Time Latitude Longitude Altitude Speed Heading
2026-04-27 07:03 47.89242 3.61273 40177 ft 457 kts 335°
2026-04-27 07:04 47.95138 3.57692 40187 ft 457 kts 335°
2026-04-27 07:04 48.01009 3.54105 40195 ft 457 kts 335°
2026-04-27 07:05 48.06899 3.50478 40190 ft 457 kts 334°
2026-04-27 07:05 48.12785 3.46844 40196 ft 457 kts 334°
2026-04-27 07:06 48.18672 3.43204 40195 ft 457 kts 334°
2026-04-27 07:06 48.24517 3.39581 40198 ft 457 kts 334°
2026-04-27 07:07 48.30398 3.35926 40199 ft 458 kts 334°
2026-04-27 07:07 48.36282 3.32261 40208 ft 458 kts 334°
2026-04-27 07:08 48.42171 3.28579 40204 ft 458 kts 334°
2026-04-27 07:08 48.48041 3.24846 40210 ft 458 kts 334°
2026-04-27 07:09 48.53872 3.21114 40210 ft 457 kts 334°
2026-04-27 07:09 48.59740 3.17354 40212 ft 457 kts 334°
2026-04-27 07:10 48.65606 3.13591 40219 ft 458 kts 334°
2026-04-27 07:10 48.71437 3.09839 40220 ft 458 kts 334°
2026-04-27 07:11 48.77301 3.06058 40223 ft 458 kts 334°
2026-04-27 07:11 48.83197 3.02356 40224 ft 460 kts 337°
2026-04-27 07:12 48.89424 2.99963 40231 ft 464 kts 346°
2026-04-27 07:12 48.95807 2.98360 40235 ft 465 kts 347°
2026-04-27 07:13 49.02152 2.96791 40233 ft 465 kts 347°
2026-04-27 07:13 49.08549 2.95153 40237 ft 465 kts 347°
2026-04-27 07:14 49.14940 2.93482 40238 ft 465 kts 347°
2026-04-27 07:14 49.21330 2.91802 40238 ft 465 kts 347°
2026-04-27 07:15 49.27728 2.90117 40244 ft 466 kts 347°
2026-04-27 07:15 49.34070 2.88445 40237 ft 465 kts 347°
2026-04-27 07:16 49.40463 2.86755 40246 ft 465 kts 347°
2026-04-27 07:16 49.46831 2.85067 40247 ft 464 kts 347°
2026-04-27 07:17 49.53197 2.83376 40251 ft 464 kts 347°
2026-04-27 07:17 49.59563 2.81679 40246 ft 464 kts 347°
2026-04-27 07:18 49.65927 2.79978 40251 ft 464 kts 347°
2026-04-27 07:18 49.72288 2.78274 40270 ft 463 kts 347°
2026-04-27 07:19 49.78640 2.76647 40255 ft 464 kts 352°
2026-04-27 07:19 49.81884 2.76813 40264 ft 470 kts
2026-04-27 07:19 49.85028 2.78063 40263 ft 476 kts 18°
2026-04-27 07:19 49.87995 2.80401 40269 ft 481 kts 29°
2026-04-27 07:20 49.90788 2.83255 40270 ft 482 kts 31°
2026-04-27 07:20 49.96371 2.89038 40270 ft 482 kts 30°
2026-04-27 07:21 50.02103 2.94503 40264 ft 482 kts 26°
2026-04-27 07:21 50.07980 2.99524 40263 ft 482 kts 25°
2026-04-27 07:22 50.13841 3.04490 40263 ft 482 kts 26°
2026-04-27 07:22 50.19730 3.09548 40264 ft 483 kts 26°
2026-04-27 07:22 50.22674 3.12092 39974 ft 487 kts 26°
2026-04-27 07:23 50.25662 3.14679 39272 ft 492 kts 26°
2026-04-27 07:23 50.28650 3.17272 38500 ft 491 kts 26°
2026-04-27 07:23 50.31630 3.19863 37696 ft 489 kts 26°
2026-04-27 07:23 50.34584 3.22434 37214 ft 481 kts 25°
2026-04-27 07:24 50.37495 3.24969 36713 ft 475 kts 25°
2026-04-27 07:24 50.40366 3.27471 36232 ft 470 kts 25°
2026-04-27 07:24 50.43241 3.29846 35743 ft 463 kts 22°
2026-04-27 07:24 50.46126 3.32054 35257 ft 458 kts 21°
2026-04-27 07:25 50.48981 3.34234 34770 ft 455 kts 22°
2026-04-27 07:25 50.51813 3.36418 34287 ft 451 kts 21°
2026-04-27 07:25 50.54657 3.38469 33725 ft 447 kts 19°
2026-04-27 07:25 50.57503 3.40420 33207 ft 443 kts 19°
2026-04-27 07:26 50.60286 3.42298 32717 ft 439 kts 18°
2026-04-27 07:26 50.63078 3.44184 32249 ft 435 kts 19°
2026-04-27 07:26 50.65852 3.46071 31770 ft 432 kts 19°
2026-04-27 07:26 50.68591 3.47949 31312 ft 429 kts 19°
2026-04-27 07:27 50.71317 3.49826 30848 ft 426 kts 19°
2026-04-27 07:27 50.74030 3.51702 30383 ft 423 kts 19°
2026-04-27 07:27 50.76718 3.53563 29846 ft 420 kts 19°
2026-04-27 07:27 50.79388 3.55415 29349 ft 416 kts 19°
2026-04-27 07:28 50.82026 3.57247 28871 ft 412 kts 19°
2026-04-27 07:28 50.84639 3.59062 28408 ft 408 kts 19°
2026-04-27 07:28 50.87237 3.60868 27959 ft 405 kts 19°
2026-04-27 07:28 50.89842 3.62447 27487 ft 398 kts 12°
2026-04-27 07:29 50.92475 3.63462 27042 ft 391 kts
2026-04-27 07:29 50.95154 3.64038 26582 ft 385 kts 359°
2026-04-27 07:29 50.97813 3.64245 26145 ft 381 kts 357°
2026-04-27 07:29 51.00452 3.64386 25712 ft 378 kts 357°
2026-04-27 07:30 51.03080 3.64518 25284 ft 376 kts 357°
2026-04-27 07:30 51.05687 3.64659 24851 ft 374 kts 358°
2026-04-27 07:30 51.08288 3.64812 24432 ft 372 kts 358°
2026-04-27 07:30 51.10870 3.64973 24008 ft 371 kts 358°
2026-04-27 07:31 51.13443 3.65138 23517 ft 369 kts 358°
2026-04-27 07:31 51.15999 3.65305 23054 ft 366 kts 358°
2026-04-27 07:31 51.18540 3.65471 22619 ft 363 kts 358°
2026-04-27 07:31 51.21056 3.65636 22200 ft 360 kts 358°
2026-04-27 07:32 51.23538 3.65796 21781 ft 356 kts 358°
2026-04-27 07:32 51.26006 3.65835 21366 ft 351 kts 355°
2026-04-27 07:32 51.28403 3.65760 20964 ft 348 kts 354°
2026-04-27 07:32 51.30816 3.65655 20565 ft 344 kts 354°
2026-04-27 07:33 51.33204 3.65554 20154 ft 341 kts 354°
2026-04-27 07:33 51.35571 3.65459 19755 ft 339 kts 354°
2026-04-27 07:33 51.37918 3.65372 19343 ft 336 kts 354°
2026-04-27 07:33 51.40249 3.65291 18950 ft 333 kts 354°
2026-04-27 07:34 51.42566 3.65214 18549 ft 330 kts 354°
2026-04-27 07:34 51.44854 3.65141 18100 ft 327 kts 354°
2026-04-27 07:34 51.47116 3.65069 17696 ft 324 kts 354°
2026-04-27 07:34 51.49324 3.64998 17291 ft 320 kts 355°
2026-04-27 07:35 51.51545 3.64928 16907 ft 319 kts 354°
2026-04-27 07:35 51.53757 3.64858 16522 ft 317 kts 355°
2026-04-27 07:35 51.55959 3.64789 16149 ft 315 kts 355°
2026-04-27 07:35 51.58142 3.64721 15762 ft 313 kts 355°
2026-04-27 07:36 51.60315 3.64650 15396 ft 311 kts 355°
2026-04-27 07:36 51.62478 3.64582 15018 ft 310 kts 355°
2026-04-27 07:36 51.64625 3.64514 14651 ft 308 kts 355°
2026-04-27 07:36 51.66757 3.64446 14292 ft 306 kts 355°
2026-04-27 07:37 51.68891 3.64378 13884 ft 304 kts 356°
2026-04-27 07:37 51.70962 3.64782 13479 ft 302 kts 17°
2026-04-27 07:37 51.72766 3.66516 13131 ft 305 kts 39°
2026-04-27 07:37 51.74102 3.69167 12794 ft 306 kts 54°
2026-04-27 07:38 51.75250 3.72065 12453 ft 316 kts 56°
2026-04-27 07:38 51.76425 3.75113 12093 ft 322 kts 56°
2026-04-27 07:38 51.77606 3.78184 11725 ft 321 kts 56°
2026-04-27 07:38 51.78778 3.81217 11361 ft 316 kts 56°
2026-04-27 07:39 51.79937 3.84202 11005 ft 310 kts 56°
2026-04-27 07:39 51.81076 3.87122 10674 ft 305 kts 56°
2026-04-27 07:39 51.82191 3.89979 10516 ft 294 kts 56°
2026-04-27 07:39 51.83265 3.92718 10401 ft 284 kts 56°
2026-04-27 07:40 51.84305 3.95374 10187 ft 276 kts 56°
2026-04-27 07:40 51.85322 3.97975 9903 ft 270 kts 56°
2026-04-27 07:40 51.86305 4.00497 9632 ft 266 kts 56°
2026-04-27 07:40 51.87300 4.03044 9376 ft 269 kts 56°
2026-04-27 07:41 51.88309 4.05626 9113 ft 274 kts 57°
2026-04-27 07:41 51.89327 4.08239 8831 ft 274 kts 57°
2026-04-27 07:41 51.90334 4.10826 8543 ft 268 kts 57°
2026-04-27 07:41 51.91338 4.13319 8261 ft 258 kts 50°
2026-04-27 07:42 51.92588 4.15357 8017 ft 255 kts 40°
2026-04-27 07:42 51.93951 4.17214 7772 ft 259 kts 39°
2026-04-27 07:42 51.95369 4.19095 7498 ft 266 kts 39°
2026-04-27 07:42 51.96777 4.20975 7224 ft 265 kts 39°
2026-04-27 07:43 51.98181 4.22870 6945 ft 259 kts 39°
2026-04-27 07:43 51.99544 4.24724 6671 ft 253 kts 40°
2026-04-27 07:43 52.00874 4.26545 6409 ft 247 kts 40°
2026-04-27 07:43 52.02186 4.28350 6147 ft 249 kts 40°
2026-04-27 07:44 52.03524 4.30195 5886 ft 256 kts 40°
2026-04-27 07:44 52.04445 4.31467 5715 ft 259 kts 40°
2026-04-27 07:44 52.06207 4.33909 5369 ft 257 kts 40°
2026-04-27 07:44 52.07542 4.35759 5182 ft 248 kts 40°
2026-04-27 07:45 52.08858 4.37584 4832 ft 248 kts 40°
2026-04-27 07:45 52.10165 4.39397 4572 ft 246 kts 40°
2026-04-27 07:45 52.11463 4.41212 4298 ft 245 kts 40°
2026-04-27 07:45 52.12750 4.43011 4044 ft 243 kts 40°
2026-04-27 07:46 52.14019 4.44779 3794 ft 242 kts 40°
2026-04-27 07:46 52.15258 4.46515 3476 ft 224 kts 40°
2026-04-27 07:46 52.16357 4.48120 3293 ft 200 kts 40°
2026-04-27 07:46 52.17356 4.49506 3225 ft 177 kts 40°
2026-04-27 07:47 52.18285 4.50778 3158 ft 179 kts 40°
2026-04-27 07:47 52.19235 4.52086 3032 ft 178 kts 40°
2026-04-27 07:47 52.20158 4.53368 2857 ft 171 kts 40°
2026-04-27 07:47 52.21046 4.54605 2675 ft 166 kts 40°
2026-04-27 07:48 52.21882 4.55891 2480 ft 168 kts 49°
2026-04-27 07:48 52.22608 4.57442 2282 ft 175 kts 54°
2026-04-27 07:48 52.23259 4.59049 2115 ft 165 kts 57°
2026-04-27 07:48 52.23882 4.60659 1913 ft 170 kts 58°
2026-04-27 07:49 52.24497 4.62255 1680 ft 162 kts 58°
2026-04-27 07:49 52.25070 4.63747 1477 ft 148 kts 58°
2026-04-27 07:49 52.25584 4.65080 1286 ft 130 kts 58°
2026-04-27 07:49 52.25909 4.65922 1148 ft 130 kts 59°
2026-04-27 07:50 52.26382 4.67155 972 ft 129 kts 58°
2026-04-27 07:50 52.26859 4.68395 801 ft 130 kts 59°
2026-04-27 07:50 52.27339 4.69645 619 ft 129 kts 59°
2026-04-27 07:50 52.27817 4.70889 443 ft 129 kts 58°
2026-04-27 07:51 52.28300 4.72139 268 ft 130 kts 59°
2026-04-27 07:51 52.28775 4.73379 103 ft 128 kts 58°
2026-04-27 07:51 52.29251 4.74612 14 ft 125 kts 59°
2026-04-27 07:51 52.29670 4.75701 3 ft 98 kts 57°
2026-04-27 07:52 52.29953 4.76441 2 ft 58 kts 58°
2026-04-27 07:52 52.30161 4.76977 2 ft 54 kts 59°
2026-04-27 07:52 52.30318 4.77424 2 ft 31 kts 84°
2026-04-27 07:52 52.30201 4.77539 3 ft 17 kts 202°
2026-04-27 07:53 52.30113 4.77405 3 ft 18 kts 237°
2026-04-27 07:53 52.30048 4.77228 3 ft 19 kts 239°
2026-04-27 07:53 52.29978 4.77036 4 ft 20 kts 237°
2026-04-27 07:53 52.29887 4.76857 3 ft 20 kts 223°
2026-04-27 07:54 52.29803 4.76670 3 ft 20 kts 237°
2026-04-27 07:54 52.29717 4.76523 3 ft 16 kts 188°
2026-04-27 07:54 52.29662 4.76572 3 ft 3 kts 146°
2026-04-27 07:54 52.29659 4.76576 3 ft 0 kts 146°